User: anonymous   Login
Location: Unspecified
(0.0000°N, 0.0000°E)
Time: 03:23:47
(UTC+00:00)
Language:

TBA - TO BE ASSIGNED - Orbit

View from above orbital plane
View from above orbital plane
View from above satellite
View from above satellite

Ground track
Ground track

The orbit is defined by the following mean orbital elements,

1 68718U          26145.58335647 +.00000000 +00000-0 -50032-1 0 00004
2 68718  53.1603  36.8701 0000831  99.4522 355.5390 15.40085181    01
Epoch (UTC): 25 May 2026 14:00:01
Eccentricity: 0.0000831
inclination: 53.1603°
perigee height: 445 km
apogee height: 446 km
right ascension of ascending node: 36.8701°
argument of perigee: 99.4522°
revolutions per day: 15.40085181
mean anomaly at epoch: 355.5390°

The dashed part of the orbit path shows where the satellite is in the earth's shadow,  

DLR